[[{"header":{"parameterUnit":"m.s-1","parameterCategory":1,"la1":30.2991,"la2":30.254,"lo1":-89.0895,"lo2":-89.0444,"dy":0.0017,"dx":0.0017,"nx":28,"ny":28,"refTime":"2025-05-19T09:00:00:Z","depth":0,"parameterNumber":2,"parameterNumberName":"U-component_of_WINDS"},"data":[0,0,0,0,0,0,0,0,0,0,0,0,0,0,0,0,0,0,0,0,0,0,0,0,0,0,0,0,0,0,0,0,0,0,0,0,0,0,0,0,0,0,0,0,0,0,0,0,0,0,0,0,0,0,0,0,0,0,0.4891,0.4891,0,0.4893,0.4893,0.4893,0.4892,0.4892,0.4892,0.4892,0.4893,0.4893,0.4893,0,0,0,0,0,0,0,0,0,0,0,0,0,0.4883,0.4883,0.4891,0.4891,0.4891,0.4893,0.4893,0.4893,0.4892,0.4892,0.4892,0.4892,0.4893,0.4893,0.4893,0,0,0,0,0,0,0,0,0,0,0,0,0,0.4886,0.4884,0.4891,0.489,0.489,0.4893,0.4893,0.4893,0.4892,0.4892,0.4892,0.4892,0.4893,0.4893,0.4893,0.4896,0,0,0.4894,0.4894,0,0,0,0,0,0,0,0,0.4886,0.4886,0.489,0.489,0.489,0.4892,0.4891,0.4894,0.4892,0.4891,0.4892,0.4892,0.4893,0.4893,0.4893,0.4896,0.4896,0.4894,0.4894,0.4894,0.4894,0,0,0,0,0,0,0,0.4886,0.4886,0.4892,0.489,0.4891,0.489,0.489,0.4891,0.4892,0.4891,0.4891,0.4892,0.4893,0.4893,0.4893,0.4896,0.4894,0.4894,0.4894,0.4894,0.4899,0.4899,0,0,0,0,0,0,0.4886,0.4886,0.4891,0.4892,0.4888,0.489,0.489,0.4892,0.4892,0.4892,0.4892,0.4892,0.4893,0.4893,0.4894,0.4896,0.4894,0.4894,0.4894,0.4899,0.4899,0.4899,0,0,0,0,0,0,0.4886,0.4886,0.4891,0.4889,0.4889,0.489,0.4892,0.4892,0.4892,0.4893,0.4893,0.4892,0.4893,0.4893,0.4895,0.4896,0.4894,0.4894,0.4899,0.4899,0.4899,0.49,0,0,0,0,0,0,0.4885,0.4886,0.4888,0.4889,0.489,0.4893,0.4892,0.4892,0.4893,0.4893,0.4893,0.4893,0.4893,0.4895,0.4895,0.4896,0.4894,0.4899,0.4899,0.4899,0.49,0.4901,0.4901,0,0,0,0,0,0.4885,0.4888,0.4888,0.4888,0.4892,0.4893,0.4894,0.4894,0.4893,0.4894,0.4894,0.4893,0.4896,0.4895,0.4895,0.4896,0.4899,0.4899,0.4899,0.49,0.4901,0.4901,0,0,0,0,0,0,0.4887,0.4888,0.4888,0.4892,0.4892,0.4893,0.4895,0.4894,0.4895,0.4895,0.4894,0.4895,0.4896,0.4896,0.4896,0.4898,0.4897,0.4897,0.4898,0.4898,0.4898,0.4898,0.4894,0,0,0,0,0,0.4888,0.489,0.4891,0.4894,0.4894,0.4894,0.4895,0.4895,0.4896,0.4896,0.4896,0.4896,0.4897,0.4898,0.4898,0.49,0.49,0.4901,0.4901,0.4901,0.4901,0.4901,0.4902,0.4899,0.4899,0.4899,0,0,0.489,0.489,0.4892,0.4894,0.4895,0.4896,0.4895,0.4896,0.4897,0.4896,0.4898,0.4898,0.4898,0.4899,0.49,0.4899,0.4902,0.4901,0.4902,0.4902,0.4902,0.4902,0.4902,0.4899,0.4899,0.4899,0,0,0.4893,0.4894,0.4897,0.4897,0.4898,0.4898,0.4898,0.4899,0.4899,0.4901,0.49,0.49,0.4902,0.4901,0.4902,0.4904,0.4903,0.4904,0.4905,0.4905,0.4905,0.4906,0.4906,0.4906,0.4904,0.4904,0.4904,0,0.4895,0.4898,0.4898,0.4899,0.49,0.4899,0.49,0.4901,0.4902,0.4902,0.4901,0.4902,0.4903,0.4904,0.4904,0.4904,0.4904,0.4904,0.4906,0.4906,0.4906,0.4906,0.4906,0.4904,0.4904,0.4904,0.4904,0,0.4899,0.4901,0.4902,0.4903,0.4904,0.4906,0.4905,0.4906,0.4905,0.4905,0.4906,0.4906,0.4906,0.4906,0.4906,0.4907,0.4906,0.4906,0.4905,0.4906,0.4906,0.4906,0.4904,0.4904,0.4904,0.4904,0,0,0.4905,0.4905,0.4906,0.4906,0.4906,0.4907,0.4908,0.4908,0.4908,0.4909,0.4909,0.491,0.4909,0.4909,0.4908,0.4908,0.4909,0.4908,0.4907,0.4907,0.4909,0.491,0.491,0.4909,0.4909,0.4909,0.4909,0,0.4908,0.491,0.491,0.4912,0.4913,0.4911,0.4912,0.4912,0.4911,0.4911,0.4911,0.4911,0.491,0.491,0.491,0.4909,0.4909,0.4909,0.4908,0.4908,0.4908,0.491,0.4911,0.4911,0.4909,0.4909,0.4909,0,0.4912,0.4913,0.4915,0.4914,0.4914,0.4915,0.4915,0.4915,0.4915,0.4914,0.4914,0.4913,0.4913,0.4912,0.4911,0.4911,0.4911,0.491,0.491,0.491,0.4909,0.4909,0.4911,0.4911,0.4909,0.4909,0.4909,0,0.4915,0.4916,0.4917,0.4918,0.4917,0.4917,0.4917,0.4916,0.4916,0.4916,0.4916,0.4915,0.4915,0.4914,0.4913,0.4912,0.4912,0.4911,0.4911,0.4911,0.4911,0.4911,0.4913,0.4911,0.4911,0.4911,0.4911,0,0.4919,0.492,0.4919,0.4919,0.492,0.4919,0.492,0.4919,0.4918,0.4918,0.4917,0.4917,0.4915,0.4914,0.4913,0.4913,0.4913,0.4912,0.4911,0.4912,0.4912,0.4911,0.4911,0.4911,0.4911,0.4911,0.4911,0,0.4922,0.4922,0.4923,0.4922,0.4921,0.4922,0.4921,0.4921,0.492,0.492,0.492,0.4918,0.4917,0.4916,0.4915,0.4914,0.4913,0.4913,0.4913,0.4913,0.4913,0.4913,0.4914,0.4914,0.4913,0.4913,0.4913,0,0.4925,0.4925,0.4924,0.4924,0.4924,0.4924,0.4924,0.4922,0.4922,0.4921,0.4921,0.492,0.4919,0.4918,0.4916,0.4915,0.4914,0.4915,0.4914,0.4914,0.4913,0.4913,0.4913,0.4915,0.4915,0.4915,0.4915,0,0.4928,0.4928,0.4928,0.4927,0.4927,0.4926,0.4926,0.4925,0.4924,0.4923,0.4923,0.4922,0.492,0.4919,0.4917,0.4916,0.4915,0.4915,0.4915,0.4915,0.4915,0.4915,0.4914,0.4915,0.4915,0.4915,0.4915,0.4915,0.4931,0.4931,0.493,0.493,0.4929,0.4928,0.4928,0.4927,0.4926,0.4925,0.4924,0.4923,0.4921,0.4919,0.4918,0.4917,0.4916,0.4916,0.4916,0.4916,0.4916,0.4916,0.4917,0.4917,0.4916,0.4916,0.4916,0,0.4934,0.4933,0.4933,0.4932,0.4931,0.493,0.4929,0.4929,0.4928,0.4926,0.4926,0.4924,0.4923,0.4921,0.4919,0.4918,0.4917,0.4918,0.4918,0.4917,0.4917,0.4917,0.4918,0.4918,0.4918,0.4918,0.4918,0.4918,0.4935,0.4935,0.4934,0.4934,0.4933,0.4932,0.4931,0.493,0.4929,0.4928,0.4927,0.4925,0.4923,0.4921,0.492,0.4919,0.4918,0.4919,0.4918,0.4917,0.4917,0.4917,0.4917,0.4919,0.4919,0.4918,0.4918,0.4918]},{"header":{"parameterUnit":"m.s-1","parameterCategory":1,"la1":30.2991,"la2":30.254,"lo1":-89.0895,"lo2":-89.0444,"dy":0.0017,"dx":0.0017,"nx":28,"ny":28,"refTime":"2025-05-19T09:00:00:Z","depth":0,"parameterNumber":3,"parameterNumberName":"V-component_of_WINDS"},"data":[0,0,0,0,0,0,0,0,0,0,0,0,0,0,0,0,0,0,0,0,0,0,0,0,0,0,0,0,0,0,0,0,0,0,0,0,0,0,0,0,0,0,0,0,0,0,0,0,0,0,0,0,0,0,0,0,0,0,5.4983,5.4984,0,5.5066,5.5067,5.5068,5.4991,5.4988,5.4985,5.4982,5.5063,5.5068,5.5072,0,0,0,0,0,0,0,0,0,0,0,0,0,5.4751,5.4755,5.4983,5.4984,5.4985,5.5066,5.5067,5.5068,5.4991,5.4988,5.4984,5.498,5.5061,5.5067,5.5073,0,0,0,0,0,0,0,0,0,0,0,0,0,5.4845,5.4757,5.4983,5.4956,5.4955,5.5066,5.5067,5.5069,5.4992,5.4987,5.4983,5.4978,5.5059,5.5066,5.5074,5.5214,0,0,5.5097,5.51,0,0,0,0,0,0,0,0,5.4839,5.4853,5.4959,5.4958,5.4957,5.5013,5.5015,5.5117,5.4993,5.4978,5.4982,5.4976,5.505,5.5058,5.5083,5.5218,5.5221,5.5098,5.5102,5.5105,5.5108,0,0,0,0,0,0,0,5.4833,5.4849,5.5016,5.4961,5.4959,5.4938,5.4947,5.5034,5.5039,5.4979,5.4973,5.4985,5.5048,5.5076,5.5085,5.5222,5.5097,5.5104,5.5109,5.5112,5.5472,5.5477,0,0,0,0,0,0,5.483,5.4844,5.5013,5.5018,5.4886,5.4946,5.4956,5.5,5.5038,5.5039,5.4988,5.4981,5.5066,5.5076,5.5087,5.5251,5.5105,5.5112,5.5117,5.5467,5.5473,5.5478,0,0,0,0,0,0,5.4825,5.4846,5.501,5.493,5.4949,5.4955,5.5006,5.5004,5.5032,5.5045,5.5045,5.5017,5.5062,5.5077,5.5182,5.5253,5.5116,5.5123,5.5461,5.5469,5.5476,5.5582,0,0,0,0,0,0,5.4819,5.4845,5.4899,5.4932,5.4954,5.5106,5.501,5.5009,5.5046,5.5037,5.5072,5.5073,5.506,5.5172,5.519,5.5261,5.5129,5.5455,5.5464,5.5473,5.5572,5.5593,5.561,0,0,0,0,0,5.4811,5.4926,5.4903,5.4923,5.5023,5.511,5.5122,5.5106,5.5052,5.5106,5.5114,5.5072,5.5243,5.5183,5.5203,5.5278,5.545,5.5462,5.5473,5.5564,5.5589,5.5609,0,0,0,0,0,0,5.49,5.4929,5.4904,5.5033,5.507,5.5097,5.5164,5.5133,5.5185,5.5174,5.515,5.5159,5.527,5.5285,5.5217,5.5413,5.5337,5.5353,5.54,5.5423,5.5442,5.5435,5.5135,0,0,0,0,0,5.4935,5.5006,5.5027,5.5138,5.5158,5.5158,5.5196,5.518,5.5216,5.5231,5.5247,5.5282,5.5343,5.5384,5.5442,5.5575,5.5579,5.5635,5.5654,5.5669,5.5683,5.5751,5.5775,5.5516,5.5515,5.5515,0,0,5.5008,5.5032,5.5078,5.5157,5.5183,5.5254,5.5172,5.5251,5.5302,5.5243,5.5343,5.5356,5.5394,5.5513,5.5566,5.5528,5.5756,5.5684,5.5696,5.5701,5.5765,5.579,5.5812,5.5523,5.5522,5.5521,0,0,5.5176,5.5203,5.5297,5.5326,5.5367,5.5366,5.5389,5.5421,5.5427,5.5528,5.5484,5.5544,5.5651,5.5679,5.5708,5.5885,5.5847,5.5904,5.6001,5.6068,5.6088,5.6106,5.6167,5.6189,5.5918,5.5918,5.5918,0,5.526,5.5367,5.535,5.5432,5.5466,5.5417,5.5511,5.5539,5.5596,5.562,5.5578,5.571,5.5732,5.5856,5.5899,5.5924,5.5947,5.5899,5.6087,5.6105,5.6121,5.6179,5.6202,5.5924,5.5924,5.5923,5.5922,0,5.5467,5.5542,5.5613,5.5671,5.5714,5.5802,5.5795,5.5841,5.5821,5.5824,5.5926,5.5951,5.6011,5.604,5.6022,5.6161,5.6136,5.6091,5.6013,5.6153,5.6206,5.6229,5.5934,5.5931,5.593,5.5928,0,0,5.5694,5.574,5.5766,5.5791,5.5832,5.5889,5.5973,5.6033,5.6071,5.6113,5.6181,5.6272,5.623,5.6263,5.6247,5.6306,5.6442,5.6253,5.6253,5.6285,5.6593,5.6625,5.6652,5.6417,5.6422,5.6425,5.6589,0,5.5861,5.6009,5.5995,5.6135,5.6202,5.6155,5.6228,5.6261,5.6266,5.6322,5.6326,5.639,5.6331,5.635,5.6407,5.6413,5.6503,5.6401,5.6478,5.6481,5.6469,5.668,5.6715,5.6869,5.661,5.6614,5.6616,0,5.6076,5.6126,5.6273,5.6302,5.6329,5.6396,5.6448,5.6504,5.6538,5.6537,5.6573,5.6547,5.6629,5.6551,5.6663,5.6594,5.6625,5.6633,5.6638,5.6643,5.6556,5.6689,5.6918,5.694,5.665,5.6647,5.6645,0,5.6224,5.6327,5.6427,5.645,5.6488,5.6535,5.6552,5.6583,5.6619,5.6665,5.6687,5.6742,5.6772,5.6814,5.6802,5.6747,5.6915,5.6837,5.6915,5.6915,5.6951,5.6948,5.7186,5.6974,5.6974,5.6974,5.6973,0,5.6411,5.6502,5.6494,5.6556,5.6655,5.6637,5.6736,5.6747,5.6774,5.6835,5.6798,5.6856,5.6838,5.6894,5.6886,5.6978,5.6992,5.6992,5.6988,5.6994,5.6994,5.7013,5.7001,5.698,5.6978,5.6977,5.6976,0,5.6592,5.6591,5.6697,5.6724,5.6732,5.6804,5.6826,5.6883,5.6885,5.6962,5.698,5.6982,5.7046,5.7039,5.7111,5.7104,5.7219,5.7203,5.7207,5.7203,5.728,5.7272,5.7537,5.7569,5.7338,5.7341,5.7342,0,5.6711,5.678,5.6814,5.6853,5.6874,5.6938,5.6974,5.6959,5.6999,5.7042,5.7093,5.7155,5.7202,5.7307,5.7314,5.7368,5.7352,5.7441,5.7359,5.7363,5.735,5.7346,5.7351,5.7456,5.7459,5.7461,5.7462,0,5.6922,5.6917,5.6973,5.7028,5.7073,5.7116,5.7154,5.7187,5.7175,5.7221,5.7287,5.7324,5.7398,5.7458,5.7509,5.7524,5.7491,5.7488,5.7509,5.7515,5.7514,5.7513,5.7249,5.7482,5.748,5.7478,5.7477,5.7477,5.7074,5.7132,5.7165,5.7227,5.7254,5.7291,5.7345,5.7353,5.7408,5.7467,5.7454,5.7528,5.7558,5.7623,5.7644,5.77,5.7667,5.7698,5.7705,5.7712,5.772,5.7506,5.7709,5.7709,5.7708,5.7708,5.7707,0,5.728,5.7299,5.7356,5.7411,5.746,5.7426,5.7466,5.7508,5.7574,5.7606,5.7654,5.7728,5.7786,5.7797,5.7852,5.7894,5.788,5.7909,5.7904,5.7908,5.7747,5.7723,5.7919,5.7919,5.7919,5.7919,5.7919,5.7919,5.7393,5.7489,5.7488,5.7596,5.7613,5.7686,5.7712,5.7744,5.7769,5.7854,5.7902,5.791,5.7933,5.7989,5.8039,5.8041,5.8062,5.8096,5.8092,5.7941,5.792,5.7899,5.7877,5.8101,5.8102,5.8247,5.8249,5.825]}]]